This demonstration page uses our WeatherBlox Daily Observations layout. Learn more.

Hourly Observations for May 30, 2016

Temp ( °F °C ) Dew Point ( °F °C ) Humidity (%) Winds ( mph kmh ) Pressure ( in mb ) Visibility ( mi km ) Precip ( " mm )
12:15 am 00:15 Mostly Cloudy 68 20 68 20 100 100 Calm 30.06 1018 10 16.0934 0 0
12:35 am 00:35 Cloudy 68 20 68 20 100 100 Calm 30.06 1018 10 16.0934 0 0
12:55 am 00:55 Cloudy 68 20 68 20 100 100 Calm 30.06 1018 10 16.0934 0 0
1:15 am 01:15 Cloudy 68 20 68 20 100 100 Calm 30.06 1018 10 16.0934 0 0
1:35 am 01:35 Cloudy 68 20 68 20 100 100 Calm 30.06 1018 10 16.0934 0 0
1:55 am 01:55 Cloudy 68 20 66 19 94 94 Calm 30.06 1018 10 16.0934 0 0
2:15 am 02:15 Cloudy 68 20 66 19 94 94 Calm 30.06 1018 10 16.0934 0 0
2:35 am 02:35 Mostly Cloudy 68 20 66 19 94 94 NNW 3 6 30.06 1018 10 16.0934 0 0
2:55 am 02:55 Cloudy 68 20 66 19 94 94 Calm 30.03 1017 10 16.0934 0 0
3:15 am 03:15 Mostly Cloudy 68 20 66 19 94 94 Calm 30.06 1018 10 16.0934 0 0
3:35 am 03:35 Partly Cloudy 66 19 66 19 100 100 Calm 30.03 1017 10 16.0934 0 0
3:55 am 03:55 Partly Cloudy 66 19 66 19 100 100 Calm 30.03 1017 10 16.0934 0 0
4:15 am 04:15 Clear 64 18 64 18 100 100 Calm 30.03 1017 10 16.0934 0 0
4:35 am 04:35 Partly Cloudy 64 18 64 18 100 100 Calm 30.03 1017 10 16.0934 0 0
4:55 am 04:55 Mostly Cloudy 64 18 64 18 100 100 Calm 30.03 1017 10 16.0934 0 0
5:15 am 05:15 Mostly Cloudy 64 18 64 18 100 100 Calm 30.03 1017 10 16.0934 0 0
5:35 am 05:35 Partly Cloudy 64 18 64 18 100 100 Calm 30.03 1017 10 16.0934 0 0
5:55 am 05:55 Sunny 63 17 63 17 100 100 Calm 30.03 1017 7 11.26538 0 0
6:15 am 06:15 Sunny 64 18 64 18 100 100 Calm 30.03 1017 7 11.26538 0 0
6:35 am 06:35 Sunny 64 18 64 18 100 100 Calm 30.03 1017 10 16.0934 0 0
6:55 am 06:55 Partly Cloudy 66 19 66 19 100 100 Calm 30.03 1017 10 16.0934 0 0
7:15 am 07:15 Partly Cloudy 68 20 68 20 100 100 NNW 5 7 30.06 1018 10 16.0934 0 0
7:35 am 07:35 Mostly Cloudy 68 20 68 20 100 100 Calm 30.06 1018 10 16.0934 0 0
7:55 am 07:55 Cloudy 68 20 68 20 100 100 NNW 3 6 30.06 1018 10 16.0934 0 0
8:15 am 08:15 Cloudy 68 20 66 19 94 94 Calm 30.06 1018 10 16.0934 0 0
8:35 am 08:35 Cloudy 70 21 68 20 94 94 Calm 30.06 1018 10 16.0934 0 0
8:55 am 08:55 Cloudy 70 21 66 19 88 88 Calm 30.06 1018 10 16.0934 0 0
9:15 am 09:15 Cloudy 70 21 68 20 94 94 Calm 30.06 1018 10 16.0934 0 0
9:35 am 09:35 Cloudy 72 22 68 20 88 88 Calm 30.06 1018 10 16.0934 0 0
9:55 am 09:55 Cloudy 73 23 68 20 83 83 Calm 30.03 1017 10 16.0934 0 0
10:15 am 10:15 Cloudy 75 24 68 20 78 78 Calm 30.03 1017 10 16.0934 0 0
10:35 am 10:35 Partly Cloudy 77 25 68 20 74 74 S 6 9 30.03 1017 10 16.0934 0 0
10:55 am 10:55 Mostly Cloudy 77 25 68 20 74 74 S 5 7 30.03 1017 10 16.0934 0 0
11:15 am 11:15 Cloudy 77 25 70 21 79 79 Calm 30.03 1017 10 16.0934 0 0
11:30 am 11:30 Partly Cloudy 79 26 70 21 74 74 NW 5 7 30.03 1017 10 16.0934 0 0
11:55 am 11:55 Mostly Cloudy 81 27 70 21 70 70 S 5 7 30.03 1017 10 16.0934 0 0
12:15 pm 12:15 Cloudy 81 27 70 21 70 70 W 3 6 30 1016 10 16.0934 0 0
12:35 pm 12:35 Partly Cloudy 82 28 70 21 66 66 SSW 5 7 30 1016 10 16.0934 0 0
12:50 pm 12:50 Partly Cloudy 82 28 68 20 62 62 SSW 5 7 30 1016 10 16.0934 0 0
1:15 pm 13:15 Partly Cloudy 82 28 68 20 62 62 Calm 30 1016 10 16.0934 0 0
1:35 pm 13:35 Partly Cloudy 82 28 68 20 62 62 S 8 13 30 1016 10 16.0934 0 0
1:55 pm 13:55 Partly Cloudy 82 28 68 20 62 62 SSE 8 13 30 1016 10 16.0934 0 0
2:15 pm 14:15 Partly Cloudy 86 30 68 20 55 55 S 8 13 30 1016 10 16.0934 0 0
2:35 pm 14:35 Sunny 82 28 66 19 58 58 ESE 6 9 29.97 1015 10 16.0934 0 0
2:55 pm 14:55 Partly Cloudy 84 29 68 20 58 58 SSW 7 11 29.97 1015 10 16.0934 0 0
3:15 pm 15:15 Partly Cloudy 84 29 68 20 58 58 SSW 10 17 29.97 1015 10 16.0934 0 0
3:35 pm 15:35 Sunny 86 30 68 20 55 55 S 6 9 29.94 1014 10 16.0934 0 0
3:55 pm 15:55 Sunny 86 30 68 20 55 55 SSW 7 11 29.94 1014 10 16.0934 0 0
4:15 pm 16:15 Sunny 86 30 68 20 55 55 SSW 7 11 29.94 1014 10 16.0934 0 0
4:35 pm 16:35 Sunny 84 29 68 20 58 58 SW 7 11 29.94 1014 10 16.0934 0 0
4:55 pm 16:55 Sunny 84 29 70 21 62 62 S 7 11 29.94 1014 10 16.0934 0 0
5:15 pm 17:15 Sunny 84 29 70 21 62 62 SW 5 7 29.94 1014 10 16.0934 0 0
5:35 pm 17:35 Partly Cloudy 86 30 70 21 59 59 SE 8 13 29.91 1013 10 16.0934 0 0
5:55 pm 17:55 Cloudy 82 28 70 21 66 66 SSE 7 11 29.94 1014 10 16.0934 0 0
6:15 pm 18:15 Cloudy 82 28 72 22 70 70 SSE 10 17 29.94 1014 10 16.0934 0 0
6:35 pm 18:35 Mostly Cloudy 82 28 72 22 70 70 SSE 10 17 29.94 1014 10 16.0934 0 0
6:55 pm 18:55 Partly Cloudy 81 27 72 22 74 74 SE 8 13 29.94 1014 10 16.0934 0 0
7:15 pm 19:15 Partly Cloudy 81 27 72 22 74 74 S 10 17 29.94 1014 10 16.0934 0 0
7:30 pm 19:30 Partly Cloudy 81 27 72 22 74 74 S 14 22 29.97 1015 10 16.0934 0 0
7:55 pm 19:55 Sunny 79 26 72 22 79 79 SSW 14 22 29.97 1015 10 16.0934 0 0
8:15 pm 20:15 Sunny 79 26 72 22 79 79 S 9 15 29.97 1015 10 16.0934 0 0
8:35 pm 20:35 Clear 77 25 72 22 83 83 SSW 10 17 29.97 1015 10 16.0934 0 0
8:50 pm 20:50 Clear 77 25 72 22 83 83 S 10 17 29.97 1015 10 16.0934 0 0
9:15 pm 21:15 Clear 77 25 72 22 83 83 SSW 7 11 29.97 1015 10 16.0934 0 0
9:35 pm 21:35 Clear 75 24 72 22 89 89 SSW 9 15 30 1016 10 16.0934 0 0
9:55 pm 21:55 Partly Cloudy 77 25 72 22 83 83 SSE 10 17 30 1016 10 16.0934 0 0
10:15 pm 22:15 Partly Cloudy 75 24 72 22 89 89 S 10 17 30 1016 10 16.0934 0 0
10:35 pm 22:35 Mostly Cloudy 73 23 72 22 94 94 S 8 13 30 1016 10 16.0934 0 0
10:55 pm 22:55 Mostly Cloudy 73 23 72 22 94 94 S 9 15 30 1016 10 16.0934 0 0
11:15 pm 23:15 Partly Cloudy 73 23 72 22 94 94 S 9 15 30 1016 10 16.0934 0 0
11:35 pm 23:35 Mostly Cloudy 73 23 73 23 100 100 S 9 15 29.97 1015 10 16.0934 0 0
11:55 pm 23:55 Cloudy 73 23 73 23 100 100 S 8 13 30 1016 10 16.0934 0 0

Powered by AerisWeather